Location: Boiro
(42.6475°N, 8.8834°W)
Time: 23:59:57
(UTC+01:00)

Vanguard 1 - All Passes

Search period start: 29 November 2021 00:00
Search period end: 09 December 2021 00:00
Orbit: 653 x 3830 km, 34.3° (Epoch: 29 November)

Date Brightness Start Highest point End Pass type
(mag) Time Alt. Az. Time Alt. Az. Time Alt. Az.
29 Nov - 02:06:53 10° SW 02:28:47 51° SSE 02:46:30 10° E visible
29 Nov - 04:31:26 10° WSW 04:53:58 65° S 05:08:20 10° E visible
29 Nov - 06:59:02 10° W 07:17:31 53° SSW 07:27:59 10° SE visible
29 Nov - 09:27:59 10° W 09:37:35 22° SW 09:44:09 10° S daylight
30 Nov - 00:07:23 10° SSW 00:25:22 32° SE 00:43:03 10° E visible
30 Nov - 02:27:25 10° SW 02:49:55 57° SSE 03:07:41 10° E visible
30 Nov - 04:52:49 10° WSW 05:15:12 65° S 05:29:12 10° ESE visible
30 Nov - 07:20:41 10° W 07:38:14 47° SSW 07:48:22 10° SE visible
30 Nov - 09:50:58 10° W 09:57:38 15° SW 10:02:46 10° SSW daylight
30 Nov - 22:15:44 10° SSE 22:23:41 13° SE 22:32:02 10° ESE visible
01 Dec - 00:26:47 10° SSW 00:46:05 39° SE 01:04:55 10° E visible
01 Dec - 02:48:13 10° WSW 03:11:08 61° SSE 03:28:47 10° E visible
01 Dec - 05:14:17 10° W 05:36:22 64° S 05:49:58 10° ESE visible
01 Dec - 07:42:26 10° W 07:58:48 40° SW 08:08:33 10° SSE visible
01 Dec - 22:31:28 10° SSE 22:43:58 19° SE 22:57:30 10° E visible
02 Dec - 00:46:38 10° SSW 01:06:56 46° SSE 01:26:30 10° E visible
02 Dec - 03:09:14 10° WSW 03:32:24 65° S 03:49:49 10° E visible
02 Dec - 05:35:49 10° W 05:57:26 61° SSW 06:10:40 10° ESE visible
02 Dec - 08:04:20 10° W 08:19:11 33° SW 08:28:27 10° SSE visible
02 Dec - 22:49:21 10° S 23:04:18 26° SE 23:20:50 10° E visible
03 Dec - 01:06:51 10° SW 01:27:54 52° SSE 01:47:54 10° E visible
03 Dec - 03:30:24 10° WSW 03:53:43 67° S 04:10:49 10° E visible
03 Dec - 05:57:24 10° W 06:18:24 56° SSW 06:31:15 10° SE visible
03 Dec - 08:26:33 10° W 08:39:24 26° SW 08:47:58 10° S daylight
03 Dec - 23:08:11 10° SSW 23:24:44 33° SE 23:43:17 10° E visible
04 Dec - 01:27:21 10° SW 01:49:00 58° SSE 02:09:10 10° E visible
04 Dec - 03:51:42 10° WSW 04:15:01 67° S 04:31:45 10° ESE visible
04 Dec - 06:19:02 10° W 06:39:12 50° SSW 06:51:40 10° SE visible
04 Dec - 08:49:19 10° W 08:59:28 19° SW 09:06:51 10° SSW daylight
04 Dec - 21:17:38 10° SE 21:23:49 12° ESE 21:30:32 10° ESE visible
04 Dec - 23:27:38 10° SSW 23:45:18 39° SE 00:05:16 10° E visible
05 Dec - 01:48:05 10° WSW 02:10:13 63° SSE 02:30:23 10° E visible
05 Dec - 04:13:05 10° W 04:36:17 66° S 04:52:37 10° ESE visible
05 Dec - 06:40:45 10° W 06:59:51 43° SW 07:11:51 10° SSE visible
05 Dec - 09:13:28 10° W 09:19:25 13° WSW 09:24:20 10° SSW daylight
05 Dec - 21:33:03 10° SSE 21:43:54 18° SE 21:56:32 10° E visible
05 Dec - 23:47:29 10° SSW 00:06:01 46° SSE 00:26:57 10° E visible
06 Dec - 02:09:02 10° WSW 02:31:31 66° S 02:51:31 10° E visible
06 Dec - 04:34:32 10° W 04:57:28 63° SSW 05:13:22 10° ESE visible
06 Dec - 07:02:38 10° W 07:20:18 36° SW 07:31:47 10° SSE visible
06 Dec - 21:50:57 10° S 22:04:03 25° SE 22:20:04 10° E visible
07 Dec - 00:07:41 10° SW 00:26:53 53° SSE 00:48:27 10° E visible
07 Dec - 02:30:06 10° WSW 02:52:51 68° S 03:12:37 10° E visible
07 Dec - 04:56:02 10° W 05:18:31 58° SSW 05:33:59 10° SE visible
07 Dec - 07:24:47 10° W 07:40:35 29° SW 07:51:20 10° S visible
07 Dec - 22:09:50 10° S 22:24:20 32° SE 22:42:40 10° E visible
08 Dec - 00:28:09 10° SW 00:47:54 58° SSE 01:09:50 10° E visible
08 Dec - 02:51:18 10° WSW 03:14:13 68° S 03:33:39 10° ESE visible
08 Dec - 05:17:36 10° W 05:39:25 52° SSW 05:54:26 10° SE visible
08 Dec - 07:47:27 10° W 08:00:41 23° SW 08:10:20 10° S visible
08 Dec - 20:21:50 10° SE 20:24:18 10° ESE 20:26:52 10° ESE visible
08 Dec - 22:29:17 10° SSW 22:44:44 38° SE 23:04:44 10° E visible
